Tracking 28790 objects as of 18-Apr-2024
HD Live streaming from Space Station
objects crossing your sky now

COSMOS 2251 DEB

Track COSMOS 2251 DEB now!
10-day predictions


NORAD ID: 35441
Int'l Code: 1993-036AKK
Perigee: 708.3 km
Apogee: 773.2 km
Inclination: 74.1 °
Period: 99.5 minutes
Semi major axis: 7111 km
RCS: 0.0123 m2 (small)
Launch date: June 16, 1993
Source: Commonwealth of Independent States (former USSR) (CIS)
Launch site: PLESETSK MISSILE AND SPACE COMPLEX (PKMTR)

Note: This is SATELLITE DEBRIS
Your satellite tracking list
Your tracking list is empty




NASA's NSSDC Master Catalog

Two Line Element Set (TLE):
1 35441U 93036AKK 24102.47431638  .00006329  00000-0  17032-2 0  9998
2 35441  74.1431   7.2005 0045680  74.5081 286.1116 14.47562501785517
Source of the keplerian elements: AFSPC